Temperature
18 18 18 17 17 17 17 17 17 17 17 17 17 17 17 17 17 17 16 16 16 16 16 16 16 16 16 17 17 17 17 16 16 16 16 16 16 16 16 16 16 16 16
18 18 18 17 17 17 17 17 17 17 17 17 17 17 17 17 17 16 16 16 16 16 16 16 16 16 16 16 16 16 16 16 16 16 16 16 16 15 15 15 15 15 15
18 18 17 17 17 17 17 17 17 17 17 17 17 17 17 16 16 16 16 16 16 16 16 16 16 16 16 16 16 16 16 16 15 15 15 15 15 15 15 15 15 15 15
17 17 17 17 17 17 17 16 17 17 17 17 17 17 16 16 16 16 16 16 16 16 16 16 16 16 15 15 15 15 15 15 15 15 15 15 15 15 15 15 15 15 15
16 17 17 17 17 16 16 16 16 16 16 16 16 16 16 16 16 16 16 16 16 16 15 16 16 15 15 15 15 15 15 15 15 14 14 14 14 14 14 14 14 14 14
16 16 16 16 16 16 16 16 16 16 16 16 16 16 16 16 16 16 16 16 16 15 15 15 15 15 15 15 15 15 15 14 14 14 14 14 14 14 14 14 14 14 14
15 16 16 16 16 16 16 16 16 16 16 16 16 16 16 16 15 15 15 15 15 15 15 15 15 15 15 15 15 14 14 14 14 14 14 14 14 13 13 13 13 13 13
15 15 15 16 16 16 16 16 16 16 16 16 16 16 15 15 15 15 15 15 15 15 15 15 15 15 15 14 14 14 14 14 13 13 13 13 13 13 13 13 13 13 13
15 15 15 15 15 15 15 15 15 15 15 15 15 15 15 15 15 15 15 15 15 15 15 15 15 15 14 14 14 14 13 13 13 13 13 13 13 13 13 13 12 12 12
15 15 15 15 15 15 15 15 15 15 15 15 15 15 15 15 15 15 15 15 15 15 15 14 14 14 14 14 13 13 13 13 13 13 13 13 12 12 12 12 12 12 12
14 14 14 14 14 15 15 15 15 15 15 15 15 15 14 14 14 15 14 14 14 14 14 14 14 14 13 13 13 13 13 12 12 12 12 12 12 12 12 12 12 12 12
14 14 14 14 14 14 14 14 14 14 14 14 14 14 14 14 14 14 14 14 14 14 14 14 13 13 13 13 13 12 12 12 12 12 12 12 12 11 11 11 11 11 11
14 14 14 14 14 14 14 14 14 14 14 14 14 14 14 14 14 14 14 14 14 14 14 13 13 13 13 12 12 12 12 12 11 11 11 11 11 11 11 11 11 11 11
14 14 14 14 14 14 14 14 14 14 14 14 14 14 13 13 13 14 14 14 13 13 13 13 13 12 12 12 12 12 11 11 11 11 11 11 11 11 11 10 10 11 11
14 14 14 14 14 13 13 13 13 13 13 13 13 13 13 13 13 13 13 13 13 13 13 13 12 12 12 12 12 11 11 11 11 11 11 11 11 11 10 10 10 10 10
13 13 13 13 13 13 13 13 13 13 13 13 13 13 13 13 13 13 13 13 13 13 12 12 12 12 11 11 11 11 11 11 10 10 10 10 10 10 10 10 10 10 10
13 13 13 13 13 13 13 13 13 13 13 13 13 13 13 13 13 13 13 12 12 12 12 12 11 11 11 11 11 11 11 10 10 10 10 10 10 10 10 9 9 9 9
13 13 13 13 13 13 13 13 13 13 13 13 13 13 13 13 12 12 12 12 12 12 12 11 11 11 11 11 11 11 10 10 10 9 9 9 9 9 9 9 9 8 8
13 13 13 13 13 13 12 12 12 12 12 12 12 12 12 12 12 12 12 12 12 11 11 11 11 10 10 10 10 10 10 10 9 9 9 9 9 8 8 8 8 8 8
13 13 12 12 12 12 12 12 12 12 12 12 12 12 12 12 12 12 12 11 11 11 11 11 10 10 10 10 10 10 10 9 9 9 9 8 8 8 8 8 8 8 7
12 12 12 12 12 12 12 12 11 11 11 12 12 11 11 11 11 11 11 11 11 11 10 10 10 10 9 9 9 9 9 9 8 8 8 8 8 8 7 7 7 7 7
12 12 12 12 12 12 12 12 11 11 11 11 11 11 11 11 11 11 11 11 10 10 10 10 10 9 9 9 8 8 7 8 8 8 8 8 7 7 7 7 6 6 6
11 12 12 12 12 11 11 11 11 11 10 10 11 11 11 11 11 10 10 10 10 10 10 10 9 9 9 8 8 7 7 7 7 7 7 7 7 7 6 6 6 6 6
11 11 11 11 11 11 11 11 11 11 11 11 11 10 10 10 10 10 10 10 10 9 9 9 9 8 8 8 7 7 7 7 6 6 6 6 6 6 6 6 6 6 5
10 11 11 11 11 11 11 11 11 10 10 10 10 10 10 10 10 10 10 9 9 9 9 8 8 8 8 8 7 7 7 6 6 5 5 6 6 6 6 6 5 5 5
10 10 10 10 10 10 10 10 10 10 10 10 10 10 10 10 9 9 9 9 9 8 8 8 8 8 7 7 7 7 6 6 6 5 5 5 5 5 5 5 5 5 4
Wind_Speed
10 14 16 15 15 15 15 15 15 15 14 14 14 14 14 14 14 14 14 13 13 13 13 13 13 13 13 13 13 12 12 12 11 11 11 10 10 10 10 10 10 9 9
14 17 17 16 16 16 15 15 15 15 14 14 14 14 14 13 13 13 13 13 12 12 12 12 12 12 12 11 11 11 10 10 9 8 8 9 9 9 10 11 10 8 9
16 17 17 17 17 16 16 15 15 15 15 14 14 13 13 13 12 12 12 12 12 12 12 12 12 12 12 11 10 9 8 7 6 6 6 6 8 9 9 10 9 9 8
15 17 16 17 17 17 16 16 15 15 14 14 13 13 12 12 12 11 11 11 11 11 12 12 12 11 11 11 10 9 8 8 8 7 6 7 8 9 9 9 9 8 8
14 16 17 18 17 17 17 16 15 15 14 14 13 13 12 12 12 12 11 12 11 11 11 11 11 10 10 10 9 8 8 8 8 7 7 8 9 8 9 8 8 8 7
13 16 18 18 18 17 17 16 15 14 14 13 13 12 12 12 12 12 11 11 11 11 11 10 10 9 9 9 8 8 8 9 8 7 8 9 9 8 8 8 8 8 7
13 15 18 18 18 17 17 16 15 14 14 13 12 12 12 12 11 11 11 11 11 10 10 10 9 9 8 8 7 7 8 9 7 7 8 8 8 9 8 8 8 8 8
13 14 17 17 17 17 16 16 15 15 14 13 12 12 12 11 11 11 11 11 10 10 10 9 9 8 8 8 7 7 8 9 7 7 7 8 9 9 8 8 8 8 8
13 13 13 15 16 17 16 16 15 15 14 13 12 12 12 11 11 11 11 10 10 9 9 8 8 8 7 7 6 7 8 9 6 5 7 9 9 9 8 8 8 8 8
10 11 11 13 14 15 15 15 15 14 14 13 13 12 11 11 11 11 10 10 9 9 8 8 7 7 6 5 5 6 8 7 6 7 8 8 9 8 8 8 8 8 9
9 9 9 10 12 13 13 14 15 14 13 13 12 11 10 9 10 10 10 9 8 8 7 6 5 5 4 3 4 6 6 5 6 7 7 7 8 8 8 8 8 9 9
9 9 8 9 10 11 11 13 12 11 11 10 9 9 7 8 9 9 9 8 7 6 5 4 3 3 3 3 4 5 5 5 6 7 7 8 8 8 8 9 9 9 10
9 9 8 8 9 9 8 9 8 8 8 8 8 7 8 8 8 7 6 6 5 4 3 2 2 3 4 4 5 5 5 5 6 6 6 7 7 7 8 9 9 9 10
9 9 8 8 8 8 8 7 7 6 6 6 7 7 6 5 5 5 4 3 3 3 2 2 2 3 4 4 4 5 5 5 4 5 6 6 7 7 8 8 9 9 10
9 8 8 9 8 7 7 6 6 6 6 7 7 6 6 4 4 4 4 4 4 3 2 2 3 3 3 4 4 4 4 4 4 5 5 6 6 7 8 8 9 10 10
9 9 8 9 9 8 6 5 5 6 7 8 7 7 7 6 5 3 3 3 3 3 3 3 3 3 3 3 3 4 4 3 4 4 4 5 7 7 8 8 9 10 11
10 9 9 9 8 8 7 6 6 7 7 6 7 7 7 7 5 4 3 3 3 4 4 4 4 3 2 3 3 3 3 3 3 3 3 4 5 6 7 9 9 10 11
9 9 9 9 9 8 7 6 6 7 7 6 7 7 7 7 6 5 3 2 4 4 3 2 2 2 2 2 2 2 2 2 2 2 3 4 3 4 5 8 9 10 11
10 10 9 9 9 8 7 7 7 6 6 6 7 7 6 6 6 5 3 3 4 3 2 2 2 2 2 2 2 1 1 1 1 1 2 3 3 4 4 6 8 10 11
9 10 9 9 9 8 6 6 5 5 4 6 6 6 6 6 6 5 4 3 3 2 2 2 2 3 2 1 2 2 1 1 0 1 1 2 2 3 5 5 6 8 10
8 9 9 9 9 8 6 6 5 4 4 4 4 6 6 6 6 5 3 3 2 2 1 2 2 2 2 2 2 2 2 2 0 1 1 1 1 3 5 5 5 6 7
8 8 9 9 9 8 6 5 4 5 4 3 4 5 6 6 5 5 4 2 2 2 2 2 2 2 2 2 2 2 2 3 3 3 1 1 2 2 4 6 6 6 6
7 8 9 9 9 8 7 5 6 4 4 3 3 3 3 6 6 4 4 3 2 2 1 1 2 2 1 1 2 2 1 2 4 3 2 2 2 3 3 5 6 7 8
5 6 8 9 9 8 8 8 9 6 5 4 4 3 3 5 5 5 4 3 2 2 2 1 2 1 2 0 2 2 0 1 1 3 4 3 3 4 4 5 5 7 8
4 4 6 9 9 9 8 8 8 6 4 4 5 5 4 4 5 5 4 3 2 2 2 2 1 1 1 1 0 1 1 1 1 2 5 5 5 4 4 4 3 5 7
3 3 4 8 8 9 9 8 8 7 7 7 7 6 5 3 3 4 4 3 2 2 2 1 1 1 0 1 0 0 0 1 2 2 4 6 7 6 6 4 3 3 6
Wind_Direction
127 132 135 130 127 124 122 119 115 111 108 105 101 98 94 92 90 88 85 84 83 81 78 76 73 72 71 69 66 64 63 62 62 64 64 60 58 56 51 47 46 48 52
130 133 136 131 129 126 123 120 116 112 108 106 104 101 97 95 92 89 86 85 84 82 79 77 73 70 70 70 67 64 62 61 62 63 64 61 59 58 54 50 48 50 48
129 133 136 132 130 127 124 121 118 115 111 108 105 102 98 95 93 90 87 86 84 81 78 75 72 70 66 65 65 61 55 48 42 42 45 58 64 61 55 50 47 43 39
128 133 135 133 130 128 125 122 120 117 114 110 107 103 99 97 93 90 87 86 83 81 78 76 72 69 66 61 58 54 45 33 26 27 40 50 57 60 55 47 41 37 33
125 130 132 133 130 128 126 123 121 118 116 113 109 106 102 100 96 92 88 86 82 80 78 76 73 69 64 59 53 45 33 19 22 30 41 48 52 57 53 45 37 33 29
126 126 131 133 131 129 127 125 122 119 117 115 112 108 104 101 97 92 88 87 85 81 78 76 73 68 62 56 48 36 22 12 22 34 48 48 49 49 46 39 31 25 20
127 125 133 133 132 131 128 127 124 121 117 115 114 110 105 101 97 93 90 87 85 82 78 74 69 64 60 52 40 26 16 11 24 38 50 49 51 50 43 37 31 27 23
125 125 132 133 133 132 130 127 124 121 119 114 112 111 108 104 100 95 91 87 84 81 77 72 67 62 57 47 34 22 12 9 22 38 47 49 51 47 38 32 25 22 20
123 126 130 132 132 131 130 127 124 121 119 116 112 111 110 106 102 98 93 87 83 80 76 71 65 61 54 44 30 15 6 5 19 33 46 48 45 40 31 24 19 14 11
125 131 134 135 134 130 128 128 126 124 121 118 113 110 109 108 104 99 93 88 83 78 74 68 62 57 50 37 19 3 356 6 36 50 47 42 38 32 26 19 15 10 9
132 134 136 134 131 131 131 130 127 126 124 120 117 117 113 109 106 99 97 93 87 81 75 69 63 54 42 23 0 351 355 21 50 58 47 38 33 28 25 22 21 21 16
145 142 139 133 129 130 132 130 130 129 127 123 123 122 115 105 100 101 105 102 94 86 78 70 57 45 29 16 352 353 14 26 47 58 45 38 31 24 22 21 19 15 11
148 143 139 134 130 129 125 129 127 127 129 126 123 117 107 103 106 104 106 107 106 96 72 41 13 17 28 28 12 18 29 28 49 54 44 37 28 23 22 18 15 12 7
146 144 138 133 129 125 124 127 126 123 122 118 120 117 110 103 100 102 98 95 85 78 57 25 19 29 30 31 24 24 26 39 58 62 49 41 31 23 17 13 10 7 2
147 144 142 138 134 127 122 126 121 117 118 115 115 115 105 96 95 96 87 78 67 63 50 21 31 31 28 26 24 27 36 39 57 68 57 41 28 19 13 8 5 3 0
155 150 145 140 138 134 131 128 119 116 117 113 108 107 106 98 93 91 87 74 63 49 30 27 40 33 34 34 31 27 31 31 50 70 75 48 32 20 13 8 4 1 359
157 152 148 144 141 140 136 131 120 120 118 113 114 112 106 101 97 93 88 77 60 49 33 30 39 35 38 31 27 26 23 24 31 52 65 67 46 26 15 6 359 355 354
150 150 150 152 148 144 135 129 119 120 118 116 117 115 112 109 104 94 89 82 69 55 41 39 35 31 25 17 12 356 13 20 21 47 57 65 56 32 17 3 355 351 348
151 148 146 147 148 144 135 129 122 118 116 117 116 114 115 112 109 101 93 90 80 63 49 35 30 30 28 12 355 343 353 356 357 45 58 67 48 29 15 0 351 348 345
151 148 147 147 143 137 133 127 119 118 115 114 114 118 121 118 114 105 102 95 82 75 51 46 39 24 34 360 348 355 308 279 343 57 30 43 34 3 350 344 345 345 341
149 149 152 151 147 142 144 144 140 144 139 128 119 124 128 125 119 112 106 100 84 91 77 62 59 41 25 16 24 352 318 288 294 26 20 5 356 345 339 332 331 329 330
162 159 156 156 154 153 156 152 143 139 139 134 120 124 133 128 125 123 110 114 101 93 72 61 64 51 26 28 37 15 349 336 335 307 295 306 321 339 329 327 322 320 324
167 168 167 162 158 156 149 135 126 114 111 119 133 143 140 133 128 119 115 110 108 107 113 88 84 76 65 353 37 71 59 293 314 301 292 290 306 316 313 317 318 324 324
173 168 166 161 157 156 151 149 153 158 159 163 158 150 142 133 132 129 122 118 120 116 115 112 82 80 101 31 354 23 195 227 313 309 308 304 307 303 304 313 315 318 320
164 162 168 159 158 158 160 163 166 160 152 142 145 145 148 141 137 135 129 123 125 124 123 107 86 78 102 123 50 336 328 326 273 275 299 312 317 300 301 297 300 309 319
161 161 163 163 163 163 165 167 169 164 155 150 154 158 158 153 149 140 139 135 130 127 129 129 124 124 108 71 20 14 341 328 308 304 296 308 309 304 300 293 293 304 319
Height
1503 1506 1509 1512 1514 1516 1518 1520 1522 1524 1525 1527 1528 1529 1530 1531 1532 1533 1534 1535 1535 1536 1536 1537 1537 1537 1537 1537 1537 1538 1538 1538 1538 1538 1538 1538 1538 1538 1538 1538 1538 1538 1537
1502 1505 1509 1511 1514 1516 1519 1521 1523 1525 1526 1528 1529 1530 1531 1532 1533 1534 1535 1535 1536 1536 1537 1537 1538 1538 1538 1538 1538 1538 1539 1539 1539 1539 1539 1539 1539 1538 1538 1538 1538 1537 1537
1501 1505 1508 1511 1514 1517 1519 1521 1523 1525 1527 1528 1530 1531 1532 1533 1534 1535 1535 1536 1537 1537 1538 1538 1538 1538 1538 1538 1539 1539 1539 1539 1539 1539 1539 1539 1539 1539 1538 1538 1538 1537 1537
1502 1505 1508 1511 1514 1517 1519 1522 1524 1526 1527 1529 1530 1531 1533 1533 1534 1535 1536 1537 1537 1538 1538 1538 1538 1538 1539 1539 1539 1539 1539 1539 1539 1539 1539 1539 1539 1538 1538 1538 1537 1537 1536
1502 1505 1508 1511 1514 1517 1519 1522 1524 1526 1528 1529 1531 1532 1533 1534 1535 1536 1536 1537 1537 1538 1538 1538 1538 1539 1539 1539 1539 1539 1539 1539 1539 1539 1539 1539 1538 1538 1538 1537 1537 1536 1536
1502 1505 1508 1511 1514 1517 1520 1522 1524 1526 1528 1530 1531 1532 1533 1534 1535 1536 1536 1537 1537 1538 1538 1538 1539 1539 1539 1539 1539 1539 1539 1539 1539 1539 1539 1538 1538 1537 1537 1537 1536 1536 1535
1502 1505 1508 1511 1514 1517 1519 1522 1524 1526 1528 1529 1531 1532 1533 1534 1535 1536 1537 1537 1538 1538 1538 1539 1539 1539 1539 1539 1539 1539 1539 1539 1539 1538 1538 1538 1538 1537 1537 1536 1536 1535 1534
1503 1505 1508 1511 1514 1517 1519 1522 1524 1526 1528 1529 1531 1532 1533 1534 1535 1536 1537 1537 1538 1538 1538 1539 1539 1539 1539 1539 1539 1539 1539 1539 1538 1538 1538 1537 1537 1537 1536 1536 1535 1534 1533
1503 1505 1508 1511 1514 1517 1519 1521 1524 1526 1527 1529 1531 1532 1533 1534 1535 1536 1537 1537 1538 1538 1538 1538 1538 1538 1539 1539 1539 1539 1539 1538 1538 1537 1537 1537 1536 1536 1535 1535 1534 1533 1532
1503 1505 1508 1510 1513 1516 1519 1521 1523 1525 1527 1529 1530 1532 1533 1534 1535 1536 1536 1537 1537 1538 1538 1538 1538 1538 1538 1538 1538 1538 1538 1538 1537 1537 1536 1536 1536 1535 1534 1533 1533 1532 1531
1503 1506 1508 1510 1513 1515 1518 1520 1522 1525 1527 1528 1530 1532 1533 1534 1535 1535 1536 1537 1537 1537 1537 1538 1538 1538 1538 1538 1538 1538 1537 1537 1537 1536 1536 1535 1535 1534 1533 1532 1531 1530 1529
1502 1505 1507 1509 1512 1515 1517 1519 1522 1524 1526 1528 1529 1531 1532 1533 1534 1535 1536 1536 1537 1537 1537 1537 1537 1537 1537 1537 1537 1537 1536 1536 1535 1535 1534 1534 1533 1532 1532 1531 1529 1528 1527
1501 1504 1506 1509 1511 1513 1516 1518 1521 1523 1525 1527 1529 1530 1531 1532 1533 1534 1535 1535 1536 1536 1536 1536 1536 1536 1536 1536 1536 1536 1535 1535 1534 1533 1533 1533 1532 1531 1530 1529 1528 1526 1525
1500 1502 1505 1507 1510 1512 1515 1517 1520 1522 1524 1526 1528 1529 1531 1531 1532 1533 1534 1534 1535 1535 1535 1535 1535 1535 1535 1535 1535 1534 1534 1534 1533 1532 1532 1531 1531 1530 1528 1527 1526 1524 1522
1498 1501 1503 1506 1509 1511 1514 1516 1519 1521 1523 1525 1527 1528 1529 1531 1531 1532 1533 1533 1534 1534 1534 1534 1534 1534 1534 1534 1534 1533 1533 1532 1532 1531 1531 1530 1529 1528 1527 1525 1524 1522 1520
1496 1499 1502 1504 1507 1510 1512 1515 1517 1519 1522 1524 1525 1527 1528 1529 1530 1531 1532 1532 1533 1533 1533 1533 1533 1533 1533 1533 1532 1532 1531 1531 1530 1530 1529 1528 1527 1526 1525 1523 1522 1520 1518
1494 1497 1500 1503 1505 1508 1511 1513 1516 1518 1520 1522 1524 1526 1527 1528 1529 1530 1530 1531 1531 1532 1532 1532 1532 1532 1532 1531 1531 1530 1530 1529 1529 1528 1527 1526 1525 1524 1523 1521 1519 1518 1516
1492 1495 1498 1501 1503 1506 1509 1511 1514 1516 1519 1521 1522 1524 1526 1527 1528 1528 1529 1530 1530 1531 1531 1531 1531 1530 1530 1530 1529 1529 1528 1528 1527 1527 1526 1525 1524 1523 1521 1519 1518 1516 1514
1490 1493 1495 1498 1501 1504 1507 1510 1512 1514 1517 1519 1521 1522 1524 1525 1526 1527 1528 1528 1529 1529 1529 1530 1529 1529 1528 1528 1528 1527 1527 1526 1526 1525 1525 1524 1523 1521 1519 1518 1516 1514 1511
1488 1490 1493 1496 1499 1502 1505 1507 1510 1512 1515 1517 1519 1521 1522 1523 1524 1525 1526 1527 1527 1528 1528 1528 1528 1528 1527 1526 1525 1525 1525 1525 1524 1524 1524 1523 1521 1520 1518 1516 1514 1512 1509
1485 1487 1490 1493 1496 1499 1502 1504 1507 1509 1512 1515 1517 1519 1520 1521 1523 1524 1524 1525 1526 1526 1526 1527 1526 1526 1526 1525 1524 1523 1523 1523 1523 1522 1522 1521 1519 1518 1516 1514 1512 1509 1507
1482 1484 1487 1490 1493 1496 1499 1502 1505 1508 1510 1512 1514 1516 1518 1519 1520 1522 1522 1523 1524 1524 1525 1525 1525 1525 1525 1524 1524 1522 1522 1522 1521 1521 1520 1518 1517 1516 1514 1512 1510 1507 1504
1479 1481 1484 1487 1490 1494 1497 1500 1503 1505 1508 1510 1511 1514 1516 1517 1518 1520 1521 1521 1522 1522 1523 1523 1523 1523 1523 1524 1524 1524 1523 1521 1519 1518 1517 1516 1515 1513 1511 1509 1507 1504 1502
1476 1479 1482 1484 1487 1491 1494 1496 1499 1501 1503 1506 1509 1511 1513 1515 1516 1518 1519 1519 1520 1521 1521 1521 1522 1522 1522 1522 1522 1523 1523 1521 1520 1516 1515 1514 1513 1511 1508 1506 1504 1501 1499
1474 1476 1479 1481 1484 1487 1490 1493 1496 1499 1501 1504 1506 1509 1511 1512 1514 1515 1517 1517 1518 1519 1519 1520 1520 1520 1520 1520 1520 1520 1520 1519 1518 1516 1512 1510 1509 1507 1505 1503 1501 1498 1496
1471 1473 1475 1478 1481 1484 1487 1490 1493 1496 1498 1501 1503 1505 1508 1510 1511 1513 1514 1515 1516 1517 1517 1518 1518 1518 1518 1518 1518 1518 1518 1517 1516 1514 1511 1507 1505 1503 1502 1500 1498 1495 1492